Weather History for Massena, NY

Change the Weather History Date:

Tuesday, July 3, 2012

  Actual Average Record
Temperature  
Mean Temperature 68 °F 68 °F  
Max Temperature 84 °F 80 °F 95 °F (1949)
Min Temperature 51 °F 57 °F 41 °F (1962)
Cooling Degree Days 3 4  
Month to date cooling degree days 14 12  
Year to date cooling degree days 166 101  
Since 1 June cooling degree days 128 87  
Growing Degree Days 16 (Base 50)    
Moisture  
Dew Point 58 °F    
Average Humidity 69    
Maximum Humidity 100    
Minimum Humidity 37    
Precipitation  
Precipitation 0.13 in 0.12 in 1.60 in (1967)
Month to date precipitation 0.13 0.35  
Year to date precipitation 13.84 15.80  
Sea Level Pressure  
Sea Level Pressure 29.87 in    
Wind  
Wind Speed 3 mph (South)    
Max Wind Speed 16 mph    
Max Gust Speed 23 mph    
Visibility 8 miles    
Events Rain    
T = Trace of Precipitation, MM = Missing Value Source: NWS Daily Summary

Daily Weather History Graph

Daily Weather History Graph

Search for Another Location

Airport:

Trip Planner

Search our weather history database for the weather conditions in past years. The results will help you decide how hot, cold, wet, or windy it might be!

Date:

Astronomy

Jul. 03, 2012 Rise Set
Actual Time 5:18 AM EDT 8:48 PM EDT
Civil Twilight 4:41 AM EDT 9:25 PM EDT
Nautical Twilight 3:52 AM EDT 10:14 PM EDT
Astronomical Twilight 2:49 AM EDT 11:17 PM EDT
Moon 8:38 PM EDT (7/3) 5:10 AM EDT (7/3)
Length of Visible Light 16h 44m
Length of Day
15h 30m
Full, 100% of the Moon is Illuminated
Jul 3
Full
Jul 3
Full
Jul 10
Last Quarter
Jul 19
New
Jul 26
First Quarter

Hourly Weather History & Observations

Time (EDT) Temp. Heat Index Dew Point Humidity Pressure Visibility Wind Dir Wind Speed Gust Speed Precip Events Conditions
12:53 AM 57.9 °F - 55.9 °F 93% 29.93 in 10.0 mi Calm Calm - N/A   Clear
1:53 AM 55.0 °F - 53.1 °F 93% 29.93 in 10.0 mi Calm Calm - N/A   Clear
2:53 AM 54.0 °F - 53.1 °F 97% 29.92 in 10.0 mi Calm Calm - N/A   Clear
3:41 AM 55.4 °F - 53.6 °F 94% 29.93 in 1.5 mi Calm Calm - N/A   Clear
3:48 AM 53.6 °F - 51.8 °F 94% 29.94 in 1.2 mi Calm Calm - N/A   Clear
3:50 AM 53.6 °F - 51.8 °F 94% 29.94 in 2.5 mi Calm Calm - N/A   Clear
3:53 AM 51.1 °F - 51.1 °F 100% 29.94 in 8.0 mi Calm Calm - N/A   Clear
4:53 AM 53.1 °F - 51.1 °F 93% 29.93 in 10.0 mi Calm Calm - N/A   Clear
5:53 AM 53.1 °F - 53.1 °F 100% 29.94 in 8.0 mi Calm Calm - N/A   Clear
6:53 AM 61.0 °F - 57.9 °F 90% 29.97 in 10.0 mi West 4.6 mph - N/A   Clear
7:53 AM 64.9 °F - 59.0 °F 81% 29.96 in 10.0 mi SW 4.6 mph - N/A   Clear
8:53 AM 70.0 °F - 57.0 °F 63% 29.95 in 10.0 mi Calm Calm - N/A   Clear
9:53 AM 75.0 °F - 59.0 °F 57% 29.94 in 10.0 mi Calm Calm - N/A   Clear
10:53 AM 78.1 °F - 57.9 °F 50% 29.93 in 10.0 mi South 5.8 mph - N/A   Clear
11:53 AM 80.1 °F 80.2 °F 55.9 °F 43% 29.92 in 10.0 mi WSW 6.9 mph - N/A   Clear
1:53 PM 82.9 °F 81.9 °F 54.0 °F 37% 29.88 in 10.0 mi Calm Calm - N/A   Clear
2:53 PM 82.0 °F 81.3 °F 54.0 °F 38% 29.86 in 10.0 mi SW 4.6 mph - N/A   Clear
3:53 PM 82.9 °F 82.4 °F 57.0 °F 41% 29.84 in 10.0 mi SSW 5.8 mph - N/A   Clear
4:53 PM 82.9 °F 82.6 °F 57.9 °F 42% 29.82 in 10.0 mi South 8.1 mph - N/A   Clear
5:53 PM 80.1 °F 80.9 °F 60.1 °F 50% 29.80 in 10.0 mi South 4.6 mph - N/A   Clear
6:53 PM 78.1 °F - 63.0 °F 60% 29.79 in 10.0 mi South 3.5 mph - N/A   Overcast
7:53 PM 70.0 °F - 62.1 °F 76% 29.79 in 7.0 mi SSE 5.8 mph 18.4 mph 0.01 in Rain Light Rain
8:53 PM 69.1 °F - 64.9 °F 87% 29.78 in 10.0 mi South 3.5 mph - 0.00 in   Overcast
9:53 PM 68.0 °F - 66.0 °F 93% 29.77 in 9.0 mi Calm Calm - 0.00 in Rain Light Rain
10:39 PM 66.2 °F - 64.4 °F 94% 29.77 in 1.8 mi NNE 4.6 mph - 0.11 in Rain Heavy Rain
10:46 PM 66.2 °F - 64.4 °F 94% 29.76 in 3.0 mi East 4.6 mph - 0.11 in Rain Light Rain
10:53 PM 66.9 °F - 64.9 °F 93% 29.76 in 10.0 mi SE 3.5 mph - 0.11 in   Overcast
11:53 PM 66.9 °F - 66.0 °F 97% 29.75 in 10.0 mi Calm Calm - N/A   Overcast